Wind_Speed
17 15 16 18 39 28 22 23 20 19 21 22 18 20 22 18 16 13 10 7 6 6 6 6 10 14 18 16 12 11 10 10 7 5 2 5 5 8 13 12 12 11 14 15 14
17 17 13 12 34 29 24 22 24 24 22 21 22 20 24 23 21 17 14 12 8 9 7 6 6 11 17 18 16 13 14 10 9 8 4 4 4 6 11 12 10 10 11 11 12
16 17 19 15 7 30 21 21 22 24 24 22 24 23 22 25 23 22 19 16 13 10 10 8 7 8 14 18 18 17 16 9 10 13 4 2 3 3 6 10 7 6 8 8 8
18 18 18 19 19 14 22 21 21 23 23 26 26 26 23 24 25 26 23 21 18 15 12 12 10 9 12 16 18 19 15 13 12 11 8 2 3 4 3 6 7 5 7 9 9
15 19 20 18 21 22 22 18 23 24 22 26 27 28 26 25 25 27 28 25 23 20 17 15 14 12 13 16 19 19 15 15 13 10 12 3 3 0 2 0 3 5 6 8 8
13 14 17 21 20 22 24 25 28 27 24 26 25 29 30 28 27 27 29 29 28 25 23 19 17 15 13 15 17 18 16 14 14 11 11 9 6 3 6 6 3 1 3 4 6
18 15 15 17 19 20 26 28 28 26 29 27 27 28 31 32 31 29 28 31 31 29 27 23 20 18 15 15 14 14 17 15 15 14 11 10 6 5 7 9 9 8 7 3 1
22 21 19 18 17 17 20 25 29 29 30 30 30 30 29 30 33 32 30 30 32 33 31 28 25 20 20 16 15 15 16 17 20 14 11 12 4 6 5 4 9 10 6 3 2
25 24 25 24 23 22 22 21 23 26 29 32 33 32 32 33 32 33 33 31 30 33 34 32 29 27 22 21 19 17 16 18 21 17 15 13 10 12 4 4 5 6 3 3 2
28 29 28 29 29 28 27 26 25 23 25 27 29 33 36 37 34 33 35 33 31 32 34 35 33 30 28 26 22 22 21 21 20 19 17 15 15 14 10 5 9 10 8 5 7
26 30 31 32 32 35 35 34 32 29 25 25 25 31 31 37 40 38 36 35 35 34 33 33 35 31 29 31 32 28 25 23 25 20 19 20 17 19 14 10 12 12 12 10 10
23 25 30 34 36 37 38 41 40 37 31 28 27 27 32 34 37 41 40 37 36 34 34 32 30 32 37 33 33 31 29 26 27 24 22 25 21 19 18 13 13 17 13 14 16
20 22 25 31 35 39 40 41 44 44 40 33 31 28 32 35 34 36 43 40 38 38 34 32 34 36 33 36 35 33 30 28 28 31 27 26 23 23 22 20 13 18 16 16 17
24 24 24 28 33 39 41 42 43 44 47 42 39 34 32 33 36 34 36 43 42 40 37 38 37 35 36 36 36 32 31 33 32 31 29 28 22 30 27 25 19 16 20 18 17
31 30 29 29 32 37 41 42 44 39 45 47 44 39 35 33 31 37 32 38 44 41 41 37 37 37 37 35 35 33 35 35 33 30 30 29 26 28 34 26 23 22 19 17 16
36 35 34 35 37 38 42 45 45 44 46 44 43 42 39 38 32 34 35 35 42 45 43 44 41 42 37 38 36 37 35 34 32 31 33 25 26 29 34 31 27 24 23 23 20
42 40 39 40 41 41 44 47 48 50 46 44 43 41 40 40 37 35 35 34 39 45 46 44 43 42 39 37 37 34 34 31 31 34 23 30 29 36 34 28 29 27 25 26 27
48 48 47 45 44 45 48 51 53 53 44 45 41 43 41 41 38 37 38 35 35 39 40 41 43 43 40 36 32 32 33 23 21 20 20 30 25 38 32 29 27 27 28 27 29
52 52 54 57 53 39 50 57 56 54 49 47 43 41 43 42 40 38 39 35 34 33 36 36 38 38 37 32 33 33 37 31 29 25 19 19 32 30 30 28 27 28 28 28 28
50 51 53 46 36 28 30 39 50 55 52 49 43 46 44 43 41 40 42 38 36 34 32 31 32 32 33 34 36 35 30 31 30 22 18 24 26 23 27 27 28 27 28 30 30
47 44 38 34 30 32 29 27 24 39 48 49 47 47 46 48 46 42 43 42 38 33 31 30 29 31 33 35 33 32 31 29 24 25 18 19 16 29 30 29 28 28 28 28 26
40 36 32 34 37 35 30 31 34 32 46 45 48 48 49 47 45 44 47 41 37 33 33 30 30 29 24 30 32 26 21 27 24 24 24 19 22 26 25 27 28 27 23 22 22
33 35 35 37 40 37 35 40 40 35 42 45 47 50 50 48 48 48 49 44 39 36 35 32 31 28 28 26 29 29 30 26 26 25 20 16 24 28 26 25 24 21 19 19 22
34 37 36 35 41 39 42 38 37 38 42 45 46 50 51 49 49 48 47 46 42 38 35 31 30 26 17 18 21 29 25 27 26 22 18 17 27 24 19 18 19 19 20 23 26
36 38 35 41 38 40 37 30 25 35 37 42 45 51 49 51 49 48 48 45 43 41 38 36 31 29 28 28 25 20 23 26 28 22 20 17 23 20 22 21 20 21 23 24 25
37 33 33 39 33 35 32 18 22 26 34 46 47 52 49 48 50 49 47 48 47 43 39 36 33 31 29 27 23 20 19 20 23 25 26 23 24 18 17 16 17 19 22 25 29
34 30 33 33 28 23 13 12 19 22 33 49 51 49 48 48 50 50 46 44 46 46 40 36 35 32 23 27 26 21 20 19 20 22 23 23 21 21 22 22 23 26 28 30 31
Wind_Direction
253 261 277 319 225 234 229 232 235 236 236 237 240 242 233 229 222 219 217 217 216 206 185 181 194 201 201 203 205 212 194 185 232 201 94 46 58 85 85 78 75 64 63 61 64
254 249 242 298 220 218 223 223 236 243 235 238 240 241 235 232 226 221 220 219 222 220 209 196 192 203 203 206 212 217 207 201 181 188 127 70 50 95 100 84 71 61 63 67 62
261 249 247 237 255 228 213 225 231 235 229 233 236 237 235 230 231 225 223 222 222 225 222 215 197 198 204 204 211 213 209 189 185 180 137 61 34 60 84 87 77 65 70 59 43
264 260 248 243 227 229 224 226 228 228 230 229 232 234 233 233 228 227 224 224 222 222 223 219 213 202 194 204 211 214 206 179 156 160 161 183 102 31 36 91 95 80 82 69 65
272 263 259 243 236 229 233 236 238 229 230 236 231 232 232 232 231 229 227 223 226 224 223 219 218 211 201 199 214 217 214 197 187 170 173 141 89 311 283 279 99 96 85 79 70
287 279 266 261 244 238 233 238 233 235 232 235 237 237 235 234 233 229 229 227 224 227 226 224 220 220 215 214 213 216 220 221 220 213 206 218 255 243 239 247 229 173 97 86 74
285 280 276 270 262 248 243 240 238 234 235 233 235 238 240 238 234 230 231 230 226 225 226 229 227 224 222 225 234 225 223 226 229 234 216 213 238 259 249 265 269 285 275 260 8
274 277 279 273 271 265 252 245 242 240 238 237 237 233 234 240 237 234 230 230 229 227 228 228 229 229 223 227 232 242 234 231 239 239 220 191 207 245 199 236 272 271 252 262 311
274 265 263 262 262 260 259 257 250 246 243 241 238 236 233 238 240 237 233 230 229 232 228 227 227 229 227 224 226 231 240 236 247 244 236 203 201 206 198 218 243 243 210 149 162
278 274 267 258 257 256 257 257 257 252 247 242 240 240 235 236 235 237 237 232 228 229 232 229 228 228 227 226 227 229 231 236 243 242 244 238 224 223 211 229 211 213 196 188 220
275 269 270 270 258 253 255 255 254 253 251 250 243 240 235 235 234 230 234 236 231 228 231 230 229 230 232 228 223 227 225 231 235 240 246 247 242 249 238 229 211 214 206 242 252
287 279 268 267 268 261 252 254 254 253 248 248 245 245 240 237 236 231 229 230 233 232 231 229 228 227 229 232 232 228 228 230 240 244 244 253 249 249 253 238 220 209 225 229 255
294 285 280 270 265 264 261 254 251 251 250 246 242 241 243 236 236 234 230 229 226 232 231 229 224 227 226 228 231 231 231 231 234 239 241 247 255 261 259 258 234 218 218 234 256
309 299 284 274 271 264 263 260 258 249 250 243 243 237 240 239 233 234 231 228 226 226 227 228 228 223 225 228 228 229 231 233 236 243 243 246 247 267 266 259 254 242 228 236 249
314 306 297 288 271 264 262 260 258 253 250 246 240 240 236 239 235 236 235 229 228 228 227 228 230 228 226 227 227 224 228 233 237 244 245 250 246 245 261 263 262 260 235 231 245
312 310 299 289 276 265 260 256 255 252 249 248 242 239 233 235 233 233 230 229 225 225 225 226 223 227 226 226 227 227 228 232 238 244 248 245 242 240 255 261 265 262 258 253 253
310 309 299 290 280 270 262 258 254 249 249 244 238 235 230 229 229 229 230 232 228 226 225 226 225 227 227 229 228 228 229 231 237 241 243 244 246 236 250 260 265 267 266 259 258
309 308 305 299 289 273 261 258 252 249 242 241 236 228 228 227 225 222 228 224 224 226 224 228 229 228 228 230 233 231 231 221 240 235 239 243 239 247 256 259 263 267 268 264 264
310 310 309 306 303 282 256 245 246 243 239 238 231 224 223 222 221 219 225 224 227 227 226 225 226 227 230 228 230 230 229 219 218 218 218 238 247 261 258 262 265 267 271 273 276
312 311 309 309 307 303 283 274 259 243 231 231 222 219 215 218 219 212 218 218 218 220 217 218 222 225 227 226 225 226 226 225 227 231 220 246 252 258 262 267 269 273 275 276 278
312 312 309 310 315 300 299 282 294 250 239 225 218 213 212 212 210 209 214 215 216 213 213 212 214 220 224 224 227 224 225 221 212 213 223 253 259 253 264 269 273 276 279 280 281
312 312 308 311 309 303 286 279 275 281 234 233 211 207 207 208 209 208 210 213 212 208 212 210 211 219 223 224 223 222 222 228 226 244 235 220 249 262 270 271 274 275 274 272 270
324 317 311 312 307 294 283 280 274 252 233 218 211 202 201 203 204 205 206 206 205 204 208 209 212 210 218 224 225 225 221 217 219 212 236 229 259 268 271 269 268 268 271 268 265
321 325 317 318 310 297 294 286 269 226 221 211 202 203 199 200 204 204 204 205 200 200 205 206 210 211 224 226 229 231 233 233 236 234 239 255 251 257 268 266 263 264 266 268 273
323 323 320 323 315 309 304 287 244 212 209 200 196 202 200 199 199 203 203 200 199 200 202 204 204 207 203 205 216 232 231 236 241 244 234 247 262 260 267 266 263 263 268 271 273
323 324 326 322 323 320 314 277 201 207 195 187 188 195 197 199 197 197 200 198 198 202 204 204 202 208 213 222 227 226 227 220 213 227 237 249 262 263 260 258 254 257 265 270 273
326 326 328 327 329 334 346 167 188 196 188 187 184 192 195 197 197 199 197 197 202 202 200 204 205 207 205 216 223 224 216 212 219 228 237 253 258 258 264 267 268 270 275 279 282
Height
5860 5859 5862 5861 5867 5872 5874 5877 5880 5882 5884 5887 5890 5892 5895 5898 5899 5902 5904 5906 5907 5908 5908 5909 5911 5913 5916 5918 5918 5920 5924 5926 5928 5930 5929 5928 5927 5926 5923 5923 5922 5921 5920 5920 5919
5856 5857 5859 5862 5863 5867 5871 5873 5876 5880 5881 5883 5886 5888 5891 5894 5897 5900 5902 5904 5905 5907 5908 5908 5910 5911 5914 5916 5918 5919 5922 5925 5926 5928 5928 5928 5929 5928 5925 5924 5924 5922 5921 5920 5920
5853 5855 5857 5858 5859 5862 5866 5869 5872 5876 5878 5879 5882 5884 5886 5890 5894 5897 5899 5901 5903 5905 5907 5908 5909 5911 5913 5914 5916 5918 5921 5924 5925 5927 5928 5928 5928 5928 5926 5925 5925 5924 5921 5921 5920
5851 5852 5853 5854 5856 5860 5862 5865 5869 5873 5874 5876 5878 5880 5882 5885 5891 5892 5896 5898 5900 5903 5905 5906 5908 5909 5911 5913 5915 5917 5919 5922 5923 5925 5927 5928 5928 5928 5928 5927 5926 5924 5922 5921 5920
5848 5849 5850 5852 5854 5855 5859 5861 5865 5868 5870 5873 5875 5877 5878 5881 5885 5888 5891 5894 5897 5899 5902 5904 5906 5908 5909 5911 5913 5915 5916 5920 5922 5924 5927 5927 5927 5927 5927 5927 5926 5925 5923 5921 5921
5844 5844 5846 5848 5851 5853 5855 5857 5860 5862 5865 5868 5871 5873 5874 5876 5880 5883 5886 5889 5892 5896 5899 5901 5904 5906 5909 5910 5912 5913 5915 5917 5920 5923 5925 5926 5926 5926 5926 5925 5925 5925 5924 5922 5921
5842 5843 5844 5844 5846 5848 5850 5852 5855 5858 5860 5862 5865 5868 5869 5871 5875 5878 5881 5884 5887 5891 5894 5898 5901 5904 5906 5908 5910 5913 5914 5915 5917 5920 5922 5925 5927 5925 5924 5925 5925 5925 5924 5922 5921
5838 5838 5839 5839 5840 5841 5844 5846 5848 5851 5854 5857 5859 5861 5863 5866 5870 5873 5876 5879 5882 5886 5890 5894 5897 5901 5903 5906 5908 5910 5912 5914 5915 5917 5920 5924 5930 5924 5924 5924 5924 5923 5923 5921 5920
5832 5834 5834 5835 5837 5838 5838 5839 5842 5845 5848 5850 5853 5855 5857 5860 5864 5867 5870 5874 5877 5881 5885 5889 5892 5897 5900 5902 5905 5908 5910 5912 5913 5914 5917 5921 5925 5923 5923 5923 5923 5922 5921 5920 5918
5824 5826 5827 5829 5831 5832 5832 5833 5836 5839 5841 5843 5845 5848 5851 5853 5856 5860 5863 5868 5871 5875 5879 5883 5887 5892 5895 5898 5902 5903 5906 5909 5911 5912 5914 5916 5919 5920 5920 5920 5920 5920 5920 5918 5915
5818 5818 5819 5820 5823 5824 5826 5827 5830 5832 5834 5837 5839 5840 5843 5845 5849 5853 5856 5861 5865 5868 5873 5877 5882 5886 5890 5892 5894 5897 5901 5904 5907 5907 5910 5911 5913 5913 5916 5917 5917 5919 5919 5918 5916
5812 5812 5812 5812 5813 5814 5817 5817 5820 5823 5827 5829 5831 5834 5835 5838 5840 5845 5849 5855 5859 5863 5866 5873 5877 5879 5880 5886 5889 5893 5896 5899 5901 5902 5906 5906 5909 5909 5910 5913 5914 5915 5917 5916 5914
5806 5806 5805 5805 5805 5805 5806 5807 5809 5812 5817 5822 5823 5828 5827 5831 5833 5838 5842 5847 5851 5854 5861 5866 5869 5870 5875 5879 5883 5887 5893 5895 5897 5896 5900 5903 5906 5905 5907 5908 5911 5912 5913 5913 5912
5798 5797 5797 5796 5797 5795 5797 5798 5799 5802 5805 5813 5813 5818 5820 5823 5826 5829 5833 5840 5843 5848 5854 5858 5860 5864 5868 5872 5877 5883 5887 5888 5890 5893 5899 5900 5906 5900 5902 5902 5905 5908 5909 5910 5910
5789 5789 5787 5786 5785 5785 5786 5787 5788 5793 5792 5799 5804 5809 5812 5814 5820 5821 5826 5829 5835 5840 5847 5852 5855 5858 5862 5867 5871 5877 5878 5881 5885 5889 5892 5896 5901 5902 5896 5897 5901 5902 5905 5906 5906
5779 5778 5776 5775 5773 5773 5774 5774 5777 5781 5780 5785 5792 5797 5802 5805 5810 5813 5817 5821 5826 5830 5837 5841 5847 5849 5856 5859 5865 5867 5874 5877 5880 5884 5885 5889 5895 5894 5891 5892 5895 5897 5899 5900 5901
5769 5767 5765 5761 5760 5760 5761 5762 5765 5764 5772 5775 5780 5787 5792 5795 5801 5805 5809 5813 5817 5822 5828 5833 5841 5844 5850 5854 5858 5864 5868 5873 5876 5876 5884 5879 5886 5881 5885 5888 5890 5892 5894 5894 5895
5758 5754 5750 5748 5747 5745 5745 5748 5749 5752 5759 5761 5768 5774 5781 5786 5791 5796 5800 5806 5810 5816 5821 5827 5832 5837 5843 5848 5855 5859 5863 5872 5872 5875 5879 5875 5879 5874 5880 5883 5885 5886 5887 5888 5889
5745 5740 5734 5730 5726 5724 5725 5724 5730 5734 5741 5748 5756 5763 5770 5776 5782 5788 5793 5800 5805 5810 5817 5821 5826 5831 5836 5841 5847 5851 5853 5863 5864 5868 5874 5870 5868 5870 5873 5877 5878 5879 5880 5882 5882
5732 5726 5721 5715 5711 5711 5711 5712 5712 5715 5723 5734 5742 5750 5757 5765 5773 5779 5784 5792 5797 5803 5809 5815 5820 5824 5829 5833 5838 5842 5849 5854 5859 5864 5868 5864 5862 5867 5866 5870 5871 5872 5873 5874 5874
5720 5714 5709 5706 5704 5703 5702 5701 5699 5703 5710 5719 5726 5737 5745 5752 5762 5770 5778 5784 5791 5798 5803 5809 5814 5819 5822 5826 5832 5837 5841 5847 5854 5857 5863 5862 5864 5856 5860 5862 5864 5865 5866 5866 5866
5711 5705 5702 5698 5695 5691 5690 5689 5690 5693 5696 5707 5714 5723 5732 5743 5753 5762 5768 5777 5785 5793 5798 5804 5809 5813 5820 5822 5826 5832 5838 5841 5848 5850 5855 5857 5856 5853 5855 5856 5858 5859 5859 5859 5860
5703 5697 5693 5688 5682 5676 5674 5673 5674 5678 5682 5692 5707 5712 5722 5733 5744 5752 5760 5770 5778 5785 5791 5798 5804 5809 5812 5818 5821 5825 5831 5835 5840 5844 5846 5852 5853 5849 5849 5850 5851 5852 5853 5853 5853
5697 5691 5684 5678 5669 5662 5655 5653 5650 5659 5666 5679 5697 5708 5715 5724 5734 5744 5754 5763 5771 5779 5786 5794 5799 5805 5812 5816 5819 5821 5826 5831 5835 5840 5845 5846 5842 5843 5844 5844 5846 5847 5847 5847 5846
5690 5683 5676 5668 5657 5649 5639 5635 5633 5645 5657 5673 5688 5701 5707 5716 5725 5735 5747 5758 5766 5772 5779 5787 5794 5799 5804 5808 5813 5818 5822 5826 5830 5834 5839 5842 5837 5837 5838 5840 5841 5841 5841 5841 5839
5683 5676 5668 5658 5648 5638 5627 5623 5629 5642 5649 5666 5679 5688 5699 5709 5718 5729 5738 5749 5757 5767 5774 5782 5789 5794 5800 5804 5809 5814 5817 5820 5824 5827 5829 5832 5832 5832 5832 5834 5834 5835 5834 5833 5833
5675 5670 5662 5654 5646 5638 5627 5624 5632 5637 5646 5658 5671 5684 5694 5704 5714 5724 5734 5746 5754 5760 5769 5778 5785 5790 5798 5801 5806 5810 5813 5816 5819 5822 5825 5827 5827 5827 5828 5828 5828 5828 5827 5826 5825